This demonstration page uses our WeatherBlox Daily Observations layout. Learn more.

41.86663, -103.66717

Hourly Observations for December 31, 2019

Temp ( °F °C ) Dew Point ( °F °C ) Humidity (%) Winds ( mph kmh ) Pressure ( in mb ) Visibility ( mi km ) Precip ( " mm )
12:53 am 00:53 Clear 15 -9.4 9 -12.8 77 77 WNW 8 13 30.18 1022 10 16.0934 0 0
1:53 am 01:53 Clear 12 -11.1 7 -13.9 80 80 NNW 7 11 30.19 1022 10 16.0934 0 0
2:53 am 02:53 Clear 14 -10 8 -13.3 77 77 WNW 9 15 30.18 1022 10 16.0934 0 0
3:53 am 03:53 Clear 12 -11.1 6 -14.4 77 77 NW 9 15 30.18 1022 10 16.0934 0 0
4:53 am 04:53 Clear 14 -10 7 -13.9 73 73 WNW 10 17 30.17 1022 10 16.0934 0 0
5:53 am 05:53 Clear 9 -12.8 5 -15 84 84 NW 7 11 30.19 1022 10 16.0934 0 0
6:53 am 06:53 Clear 10 -12.2 5 -15 80 80 WNW 8 13 30.16 1021 10 16.0934 0 0
7:53 am 07:53 Sunny 13 -10.6 6 -14.4 74 74 NNW 7 11 30.15 1021 10 16.0934 0 0
8:53 am 08:53 Sunny 22 -5.6 11 -11.7 63 63 NW 12 19 30.12 1020 10 16.0934 0 0
9:53 am 09:53 Sunny 26 -3.3 14 -10 60 60 NW 12 19 30.11 1020 10 16.0934 0 0
10:53 am 10:53 Sunny 31 -0.6 16 -8.9 54 54 WNW 9 15 30.07 1018 10 16.0934 0 0
11:53 am 11:53 Sunny 36 2.2 16 -8.9 44 44 WNW 21 33 30.02 1017 10 16.0934 0 0
12:53 pm 12:53 Sunny 37 2.8 16 -8.9 42 42 W 14 22 29.98 1015 10 16.0934 0 0
1:53 pm 13:53 Sunny 38 3.3 18 -7.8 44 44 W 14 22 29.96 1015 10 16.0934 0 0
2:53 pm 14:53 Sunny 38 3.3 17 -8.3 43 43 W 20 31 29.95 1014 10 16.0934 0 0
3:53 pm 15:53 Sunny 37 2.8 15 -9.4 41 41 W 18 30 29.93 1014 10 16.0934 0 0
4:53 pm 16:53 Clear 34 1.1 15 -9.4 46 46 W 18 30 29.93 1013 10 16.0934 0 0
5:53 pm 17:53 Clear 32 0 15 -9.4 50 50 W 14 22 29.94 1014 10 16.0934 0 0
6:53 pm 18:53 Clear 32 0 15 -9.4 50 50 W 16 26 29.95 1014 10 16.0934 0 0
7:53 pm 19:53 Clear 31 -0.6 15 -9.4 52 52 W 10 17 29.92 1013 10 16.0934 0 0
8:53 pm 20:53 Clear 29 -1.7 16 -8.9 58 58 WNW 9 15 29.87 1011 10 16.0934 0 0
9:53 pm 21:53 Clear 27 -2.8 16 -8.9 63 63 NW 7 11 29.83 1010 10 16.0934 0 0
10:53 pm 22:53 Clear 31 -0.6 18 -7.8 59 59 W 13 20 29.78 1009 10 16.0934 0 0
11:53 pm 23:53 Clear 28 -2.2 18 -7.8 66 66 WNW 7 11 29.75 1007 10 16.0934 0 0

Powered by AerisWeather